TimeEST,TemperatureF,Dew PointF,Humidity,Sea Level PressureIn,VisibilityMPH,Wind Direction,Wind SpeedMPH,Gust SpeedMPH,PrecipitationIn,Events,Conditions,WindDirDegrees,DateUTC
12:11 AM,30.2,28.4,93,29.76,2.5,NNW,5.8,-,0.00,Snow,Light Snow,340,2013-03-02 05:11:00
12:24 AM,30.2,26.6,86,29.76,3.0,NNW,6.9,-,0.00,Snow,Light Snow,330,2013-03-02 05:24:00
12:40 AM,30.2,26.6,86,29.76,3.0,NNW,6.9,-,0.00,Snow,Light Snow,340,2013-03-02 05:40:00
12:54 AM,30.9,28.0,89,29.77,4.0,NNW,8.1,-,0.00,Snow,Light Snow,340,2013-03-02 05:54:00
1:07 AM,30.2,28.4,93,29.76,3.0,NNW,9.2,-,0.00,Snow,Light Snow,340,2013-03-02 06:07:00
1:54 AM,30.9,28.0,89,29.77,2.5,NNW,9.2,-,0.01,Snow,Light Snow,340,2013-03-02 06:54:00
2:03 AM,30.2,28.4,93,29.76,3.0,NNW,10.4,-,0.00,Snow,Light Snow,340,2013-03-02 07:03:00
2:21 AM,30.2,28.4,93,29.75,2.0,NNW,11.5,-,N/A,Snow,Light Snow,330,2013-03-02 07:21:00
2:29 AM,30.2,28.4,93,29.75,1.8,NNW,12.7,-,0.00,Snow,Light Snow,330,2013-03-02 07:29:00
2:42 AM,30.2,28.4,93,29.75,2.5,NW,12.7,-,0.00,Snow,Light Snow,320,2013-03-02 07:42:00
2:54 AM,30.9,27.0,85,29.77,2.5,NNW,12.7,-,0.01,Snow,Light Snow,330,2013-03-02 07:54:00
3:01 AM,30.2,26.6,86,29.76,2.5,NNW,11.5,-,0.00,Snow,Light Snow,330,2013-03-02 08:01:00
3:03 AM,30.2,26.6,86,29.76,3.0,NNW,11.5,-,0.00,Snow,Light Snow,330,2013-03-02 08:03:00
3:43 AM,30.2,26.6,86,29.76,5.0,NW,10.4,-,0.00,Snow,Light Snow,320,2013-03-02 08:43:00
3:54 AM,30.0,27.0,88,29.77,4.0,NW,11.5,-,0.00,Snow,Light Snow,320,2013-03-02 08:54:00
4:09 AM,30.2,26.6,86,29.76,2.5,NNW,10.4,-,0.01,Snow,Light Snow,330,2013-03-02 09:09:00
4:17 AM,30.2,26.6,86,29.76,2.0,NNW,10.4,-,0.01,Snow,Light Snow,330,2013-03-02 09:17:00
4:46 AM,30.2,26.6,86,29.76,4.0,NNW,8.1,-,0.02,Snow,Light Snow,330,2013-03-02 09:46:00
4:54 AM,30.0,26.1,85,29.77,5.0,NNW,9.2,-,0.02,Snow,Light Snow,330,2013-03-02 09:54:00
5:54 AM,30.0,26.1,85,29.78,9.0,NW,6.9,-,0.00,Snow,Light Snow,320,2013-03-02 10:54:00
6:54 AM,30.0,23.0,75,29.78,9.0,NW,9.2,-,0.00,Snow,Light Snow,320,2013-03-02 11:54:00
7:54 AM,30.0,24.1,79,29.79,9.0,North,5.8,-,0.00,Snow,Light Snow,10,2013-03-02 12:54:00
8:54 AM,28.9,23.0,78,29.79,9.0,North,6.9,-,0.00,,Overcast,10,2013-03-02 13:54:00
9:39 AM,28.4,23.0,80,29.78,10.0,North,5.8,-,N/A,,Overcast,360,2013-03-02 14:39:00
9:54 AM,28.9,23.0,78,29.79,10.0,North,10.4,-,N/A,,Overcast,350,2013-03-02 14:54:00
10:18 AM,28.4,23.0,80,29.77,10.0,North,5.8,-,N/A,,Overcast,360,2013-03-02 15:18:00
10:54 AM,30.0,23.0,75,29.79,10.0,North,8.1,-,N/A,,Overcast,350,2013-03-02 15:54:00
11:54 AM,30.9,23.0,72,29.78,10.0,North,10.4,-,N/A,,Overcast,360,2013-03-02 16:54:00
12:54 PM,30.9,23.0,72,29.77,9.0,NNW,10.4,-,0.00,Snow,Light Snow,340,2013-03-02 17:54:00
1:54 PM,30.9,23.0,72,29.76,9.0,North,10.4,-,0.00,Snow,Light Snow,350,2013-03-02 18:54:00
2:50 PM,30.2,21.2,69,29.75,9.0,North,11.5,-,0.00,Snow,Light Snow,360,2013-03-02 19:50:00
2:54 PM,30.9,21.9,69,29.76,9.0,North,12.7,-,0.00,Snow,Light Snow,360,2013-03-02 19:54:00
3:01 PM,30.2,21.2,69,29.75,9.0,North,12.7,-,0.00,Snow,Light Snow,10,2013-03-02 20:01:00
3:54 PM,28.9,21.0,72,29.77,9.0,NNE,11.5,-,0.00,Snow,Light Snow,20,2013-03-02 20:54:00
4:41 PM,28.4,21.2,74,29.76,9.0,North,11.5,-,0.00,Snow,Light Snow,10,2013-03-02 21:41:00
4:54 PM,28.0,21.0,75,29.78,4.0,North,8.1,-,0.00,Snow,Light Snow,10,2013-03-02 21:54:00
5:03 PM,28.4,21.2,74,29.77,2.0,North,11.5,-,0.00,Snow,Light Snow,10,2013-03-02 22:03:00
5:54 PM,26.1,21.0,81,29.80,3.0,North,10.4,-,0.00,Snow,Light Snow,10,2013-03-02 22:54:00
5:59 PM,26.6,21.2,80,29.79,2.5,North,9.2,-,0.00,Snow,Light Snow,10,2013-03-02 22:59:00
6:30 PM,24.8,21.2,86,29.79,1.8,North,10.4,-,0.00,Snow,Light Snow,360,2013-03-02 23:30:00
6:42 PM,24.8,21.2,86,29.80,2.5,North,10.4,-,0.01,Snow,Light Snow,10,2013-03-02 23:42:00
6:54 PM,25.0,21.0,85,29.81,2.0,North,10.4,-,0.01,Snow,Light Snow,360,2013-03-02 23:54:00
6:56 PM,24.8,21.2,86,29.80,1.8,North,9.2,-,0.00,Snow,Light Snow,10,2013-03-02 23:56:00
7:00 PM,24.8,21.2,86,29.80,1.8,North,9.2,-,0.00,Snow,Light Snow,360,2013-03-03 00:00:00
7:20 PM,24.8,19.4,80,29.80,2.0,North,9.2,-,0.01,Snow,Light Snow,10,2013-03-03 00:20:00
7:33 PM,24.8,19.4,80,29.80,2.0,North,9.2,-,0.01,Snow,Light Snow,10,2013-03-03 00:33:00
7:49 PM,24.8,19.4,80,29.80,1.8,North,8.1,-,0.01,Snow,Light Snow,10,2013-03-03 00:49:00
7:54 PM,24.1,19.9,84,29.81,1.8,North,8.1,-,0.01,Snow,Light Snow,10,2013-03-03 00:54:00
8:30 PM,24.8,19.4,80,29.79,2.0,North,4.6,-,0.01,Snow,Light Snow,360,2013-03-03 01:30:00
8:39 PM,24.8,19.4,80,29.80,2.5,North,4.6,-,0.02,Snow,Light Snow,10,2013-03-03 01:39:00
8:54 PM,24.1,19.9,84,29.81,2.0,NNE,4.6,-,0.02,Snow,Light Snow,20,2013-03-03 01:54:00
9:01 PM,24.8,19.4,80,29.80,1.8,North,4.6,-,0.00,Snow,Light Snow,10,2013-03-03 02:01:00
9:14 PM,24.8,19.4,80,29.80,2.5,North,4.6,-,0.01,Snow,Light Snow,10,2013-03-03 02:14:00
9:30 PM,24.8,19.4,80,29.80,3.0,NNE,4.6,-,0.01,Snow,Light Snow,30,2013-03-03 02:30:00
9:54 PM,24.1,19.9,84,29.81,3.0,North,3.5,-,0.01,Snow,Light Snow,360,2013-03-03 02:54:00
10:05 PM,24.8,19.4,80,29.79,3.0,North,3.5,-,0.00,Snow,Light Snow,350,2013-03-03 03:05:00
10:21 PM,24.8,19.4,80,29.79,4.0,North,3.5,-,0.01,Snow,Light Snow,360,2013-03-03 03:21:00
10:29 PM,24.8,19.4,80,29.78,4.0,North,6.9,-,0.01,Snow,Light Snow,350,2013-03-03 03:29:00
10:43 PM,24.8,19.4,80,29.78,5.0,NNW,5.8,-,0.01,Snow,Light Snow,340,2013-03-03 03:43:00
10:54 PM,24.1,19.0,81,29.79,4.0,North,4.6,-,0.01,Snow,Light Snow,350,2013-03-03 03:54:00
11:54 PM,24.1,19.9,84,29.78,3.0,Calm,Calm,-,0.00,Snow,Light Snow,0,2013-03-03 04:54:00